sat.trackr.live / text

‹ back to catalog

STARLINK-2741

NORAD 48684 · 2021-044AY

PAYLOAD ACTIVE UNKNOWN

§ Identity

Operator
Country
US
Launch date
2021-05-26
Launch site
AFETR
Launch vehicle
Mass (kg)
RCS (m²)

Purposes: comms

External: N2YO · Heavens-Above · Gunter

§ Orbital elements

Epoch: 2026-09-19T12:49:11.429184Z

Period
94.01 min
Inclination
53.1585°
Eccentricity
0.0001086
Mean motion
15.31733883 rev/d
Perigee alt
469.9 km
Apogee alt
471.4 km
Semi-major
6,848.8 km
B*
1.6955e-4
RAAN
255.8015°
Arg perigee
89.6415°
Mean anomaly
270.4711°
Rev number
29,403

§ Raw data

STARLINK-27411 48684U 21044AY  26262.53416006  .00004905  00000+0  16955-3 0  99902 48684  53.1585 255.8015 0001086  89.6415 270.4711 15.31733883294035

JSON: /api/v1/satellites/48684 · /tle

For live sub-satellite position, see the globe view (requires WebGL).

§ Visibility from observer

Set your observer location to see the next 7 days of passes ≥ 10°. The values pass through the URL so the page stays shareable.

No JS? Fill the form by hand. The geolocation button needs JavaScript.